Flag for Germany Weather past 2 weeks in Paderborn, North Rhine-Westphalia, Germany

Now
39 °F

Broken clouds.


Feels Like: 32 °F
Forecast: 38 / 51 °F
Wind: 12 mph from Southwest

Location: Paderborn / Lippstadt

Current Time: Mar 27, 2015 at 8:18:22 AM

Latest Report: Mar 27, 2015 at 7:50 AM


Visibility: N/A

Pressure: 29.86 "Hg

Humidity: 87%

Dew point: 36 °F

Location of PaderbornLocation

Historic Weather in Paderborn — Graph

°F

Paderborn temperature yesterday

Maximum temperature yesterday: 45 °F (at 2:50 PM)
Minimum temperature yesterday: 37 °F (at 3:50 AM)
Average temperature yesterday: 40 °F

Past Weeks' High & Low Weather Summary

 TemperatureHumidityPressure
High59 °F (Mar 17, 3:20 PM)100% (Mar 12, 7:20 AM)30.48 "Hg (Mar 12, 7:20 AM)
Low28 °F (Mar 12, 7:20 AM)41% (Mar 25, 11:50 AM)29.62 "Hg (Mar 25, 6:20 AM)
Average41 °F83%30.13 "Hg
* Reported Mar 12 7:20 AM — Mar 27 7:20 AM, Paderborn, Weather by CustomWeather, © 2015

Note: Actual official high and low records may vary slightly from our data, if they occured in-between our weather recording intervals... More about our weather records

Advertising

Paderborn weather history for previous 24 hours

 ConditionsComfort  
Time TempWeatherWind HumidityBarometerVisibility
7:20 AM
Fri, Mar 27
39 °FLight rain. Broken clouds.12 mph87%29.86 "Hg5 mi
6:50 AM39 °FLight rain. Broken clouds.12 mph87%29.86 "Hg4 mi
6:20 AM39 °FLight rain. Broken clouds.14 mph87%29.83 "Hg5 mi
5:50 AM41 °FLight rain. Passing clouds.13 mph81%29.83 "HgN/A
5:20 AM41 °FPassing clouds.13 mph81%29.83 "HgN/A
4:50 AM41 °FPassing clouds.12 mph81%29.80 "HgN/A
3:50 AM41 °FLight rain. Passing clouds.10 mph87%29.80 "HgN/A
3:20 AM41 °FLight rain. Passing clouds.9 mph87%29.77 "HgN/A
11:50 PM
Thu, Mar 26
39 °FLight rain. Passing clouds.15 mph81%29.74 "HgN/A
11:20 PM39 °FPassing clouds.16 mph81%29.74 "HgN/A
10:20 PM39 °FPassing clouds.16 mph75%29.71 "HgN/A
9:50 PM39 °FPassing clouds.13 mph75%29.74 "HgN/A
9:20 PM39 °FPassing clouds.12 mph81%29.74 "HgN/A
8:50 PM39 °FLight rain. Passing clouds.9 mph81%29.74 "HgN/A
8:20 PM39 °FLight rain. Passing clouds.6 mph81%29.74 "HgN/A
7:50 PM39 °FLight rain. Passing clouds.6 mph87%29.74 "HgN/A
7:20 PM37 °FLight rain. Passing clouds.6 mph93%29.74 "HgN/A
6:50 PM39 °FLight rain. Partly cloudy.7 mph87%29.74 "Hg4 mi
6:20 PM39 °FSprinkles. Broken clouds.9 mph81%29.74 "Hg4 mi
5:50 PM43 °FSprinkles. Broken clouds.12 mph61%29.71 "Hg4 mi
5:20 PM45 °FPassing clouds.8 mph57%29.71 "HgN/A
4:50 PM45 °FPassing clouds.10 mph49%29.71 "HgN/A
4:20 PM45 °FScattered clouds.12 mph49%29.71 "HgN/A
3:50 PM45 °FScattered clouds.9 mph53%29.71 "HgN/A
3:20 PM45 °FPartly sunny.9 mph57%29.71 "Hg6 mi
2:50 PM45 °FPartly sunny.8 mph57%29.74 "Hg5 mi
2:20 PM43 °FPartly sunny.7 mph71%29.74 "Hg5 mi
1:50 PM43 °FPartly sunny.3 mph71%29.74 "Hg5 mi
1:20 PM39 °FPartly sunny.5 mph81%29.74 "Hg5 mi
12:50 PM39 °FPartly sunny.5 mph81%29.77 "Hg5 mi
12:20 PM41 °FPartly sunny.7 mph70%29.77 "Hg5 mi
11:50 AM41 °FPartly sunny.8 mph76%29.77 "Hg5 mi
11:20 AM39 °FPartly sunny.9 mph81%29.77 "Hg5 mi
10:50 AM39 °FPartly sunny.7 mph81%29.77 "Hg5 mi
10:20 AM39 °FPartly sunny.6 mph81%29.77 "Hg5 mi
9:50 AM39 °FPartly sunny.5 mph81%29.77 "Hg6 mi
9:20 AM39 °FPartly sunny.5 mph81%29.77 "Hg6 mi
8:50 AM39 °FPartly sunny.5 mph81%29.77 "Hg6 mi
8:20 AM37 °FPartly sunny.3 mph87%29.77 "HgN/A
Weather by CustomWeather, © 2015

See weather overviewHow to use our weather pages